Regional Weather Roundup
Issued by NWS

Home | Current Version | Previous Version | Graphics & Text | Print | Product List | Glossary On
Versions: 1 2 3 4 5 6 7 8 9 10 11 12 13 14 15 16 17 18 19 20 21 22 23 24 25 26 27 28 29 30 31 32 33 34 35 36 37 38 39 40 41 42 43 44 45 46 47 48 49 50
000
ASUS45 KSLC 170110
RWRUT

UTAH REGIONAL WEATHER ROUNDUP
NATIONAL WEATHER SERVICE SALT LAKE CITY UT
600 PM MST TUE DEC 16 2014

UTZ001>011-023>025-170200-

NORTHERN UTAH

CITY           SKY/WX    TMP DP  RH WIND       PRES   REMARKS
BRIGHAM CITY   CLOUDY    38  30  70 CALM      30.00S
HILL AFB       CLOUDY    37  31  78 N2        29.98S
LOGAN          CLOUDY    36  29  75 CALM      29.99S
OGDEN          CLOUDY    36  31  82 NW5       29.98S WCI  32
PROVO AIRPORT  MOCLDY    43  25  49 E7        29.98S
SALT LAKE CITY CLOUDY    38  31  76 NW6       29.99R WCI  33
VERNAL         PTCLDY    24  22  91 E3        30.09R
WENDOVER       CLOUDY    34  25  69 E3        30.00S
HEBER CITY     CLOUDY    37  19  48 S9        29.97S WCI  31
WEST JORDAN    CLOUDY    36  32  87 NW7       29.99R WCI  30

$$

UTZ012>022-026-027-170200-

SOUTHERN/CENTRAL UTAH

CITY           SKY/WX    TMP DP  RH WIND       PRES   REMARKS
BLANDING       CLOUDY    35  27  73 N7        30.14R WCI  29
BRYCE CANYON   CLOUDY    30  21  69 S6        30.03S WCI  24
CEDAR CITY     CLOUDY    38  21  50 S8        29.98R WCI  32
DELTA          CLOUDY    39  25  57 S6        29.98R WCI  35
MILFORD        MOCLDY    39  26  59 S6        29.97S WCI  35
MOAB/CYNLANDS  CLOUDY    37  32  82 CALM      30.05F
PRICE          MOCLDY    32  19  58 NE3       30.05S
ST GEORGE      CLOUDY    48  28  46 S3        30.00S

$$

REGIONAL REPORTS     COLORADO/ARIZONA

CITY           SKY/WX    TMP DP  RH WIND       PRES   REMARKS
CRAIG, CO      CLOUDY    21  19  92 CALM      30.06S
GRAND JUNCTION CLOUDY    33  28  81 CALM      30.07S
RIFLE          CLOUDY    31  25  78 S3        30.08R
MONTROSE       MOCLDY    39  27  62 CALM      30.06F
CORTEZ         PTCLDY    42  24  49 E5        30.06F
PAGE, AZ       CLOUDY    44  25  47 CALM      30.03S
GRAND CANYON   CLOUDY    34  26  72 CALM      30.03S
KINGMAN        CLOUDY    46  32  58 S7        29.99S
FLAGSTAFF      CLOUDY    34  23  64 CALM      30.04F

$$

REGIONAL REPORTS    NEVADA/IDAHO/WYOMING

CITY           SKY/WX    TMP DP  RH WIND       PRES   REMARKS
LAS VEGAS, NV  CLOUDY    52  30  43 SE5       29.95R
ELY            MOCLDY    32  25  75 S8        29.98R WCI  25
ELKO           MOCLDY    35  30  82 N3        29.95S
POCATELLO, ID  FLURRIES  33  33 100 CALM      29.99S
BURLEY         CLOUDY    34  32  92 NE3       29.97R
EVANSTON, WY   CLOUDY    29  20  69 E6        29.97S WCI  23
ROCK SPRINGS   MOCLDY    23  18  81 SW5       30.00R WCI  17

$$


USA.gov is the U.S. government's official web portal to all federal, state and local government web resources and services.